コワルスキー彗星

425P/Kowalski (2021)

English version
Home page
Updated on September 18, 2021

---------------------------------------------------------------------

・ プロフィール

符号 425P/2021 O2
検出日 2021年7月20日
検出光度 20.4等
検出者 Pan-STARRS 1 telescope (Haleakala)

・ 軌道要素

Epoch 2021 Sept. 23.0 TT = JDT 2459480.5                                        
T 2021 Sept. 20.40259 TT                                Rudenko                 
q   2.8900654            (2000.0)            P               Q                  
n   0.06190466     Peri.  200.73001     +0.63901860     -0.75602162             
a   6.3287874      Node   210.08842     +0.73952570     +0.65453185             
e   0.5433461      Incl.   16.42134     +0.21155843     -0.00440183             
P  15.9                                                                         
From 138 observations 2005 Sept. 30-2021 July 20, mean residual 0".8.           

・ 光度変化

        m1 = 9.5 + 5 logΔ + 17.0 log r

---------------------------------------------------------------------

軌道要素はM.P.E.C. 2021-O66に掲載されたものです。
光度グラフはComet for Windowsで作成したものです。

---------------------------------------------------------------------

Copyright(C) Seiichi Yoshida (comet@aerith.net). All rights reserved.